Regional Weather Roundup
Issued by NWS

Home | Current Version | Previous Version | Graphics & Text | Print | Product List | Glossary On
Versions: 1 2 3 4 5 6 7 8 9 10 11 12 13 14 15 16 17 18 19 20 21 22 23 24 25 26 27 28 29 30 31 32 33 34 35 36 37 38 39 40 41 42 43 44 45 46 47 48
000
ASUS45 KBOU 060807
RWRCO

WEATHER ROUNDUP FOR COLORADO
NATIONAL WEATHER SERVICE DENVER/BOULDER CO
100 AM MST FRI MAR 06 2015

NOTE: "FAIR" INDICATES FEW OR NO CLOUDS BELOW 12000 FEET WITH NO
SIGNIFICANT WEATHER AND/OR OBSTRUCTIONS TO VISIBILITY.

COZ001>005-013-030-031-060900-
...NORTHWEST COLORADO...

CITY           SKY/WX    TMP DP  RH WIND       PRES   REMARKS
CRAIG          CLEAR     14   9  80 CALM      30.41R
HAYDEN         CLEAR     18   9  68 E8        30.39R WCI   7
MEEKER         CLEAR     23  16  74 E5        30.41R WCI  17
MOUNT WERNER   NOT AVBL
STEAMBOAT SPGS CLEAR     13   8  80 CALM      30.40S
WALDEN         MOCLDY    21  10  63 S8        30.32F WCI  12
$$

COZ006>008-011-060900-
...WEST CENTRAL VALLEYS...

CITY           SKY/WX    TMP DP  RH WIND       PRES   REMARKS
GRAND JUNCTION CLEAR     27  20  75 SE9       30.41F WCI  18
MONTROSE       CLEAR     27  16  63 SE10      30.44S WCI  17
EAGLE          PTCLDY    19  16  86 CALM      30.45R
RIFLE          CLEAR     25  18  74 SE3       30.44S
DELTA          CLEAR     28  20  72 E5        30.43F WCI  23
NUCLA          CLEAR     27  18  69 SE7       30.44F WCI  19
$$

COZ017>023-064>068-060900-
...SOUTHWEST COLORADO...

CITY           SKY/WX    TMP DP  RH WIND       PRES   REMARKS
DURANGO        CLEAR     23  14  68 N6        30.38F WCI  16
CORTEZ         CLEAR     23  19  85 E5        30.39F WCI  17
PAGOSA SPRINGS CLEAR     15  11  87 CALM      30.39S
TELLURIDE      CLEAR     19   6  57 SE7       30.40F WCI  10
WOLF CREEK PAS CLEAR     19 -15  21 N6        30.41F WCI  11
$$

COZ009-010-012-014-032>034-037-058>063-060900-
...CENTRAL COLORADO...

CITY           SKY/WX    TMP DP  RH WIND       PRES   REMARKS
ASPEN          PTCLDY    11   4  73 SW3       30.39S
BUENA VISTA    PTCLDY    18   6  58 NW8       30.34S WCI   8
COPPER MTN     PTCLDY    18  -6  35 W24       30.33S WCI   0
BERTHOUD PASS  NOT AVBL
COTTONWOOD PAS PTCLDY    28  -6  22 CALM      30.32S
GUNNISON       PTCLDY     5  -6  61 CALM      30.46S
KREMMLING      PTCLDY    10   7  85 CALM      30.42R
LEADVILLE      PTCLDY     8  -4  58 CALM      30.33F
SALIDA         PTCLDY    30   8  39 NW9       30.41R WCI  22
SUNLIGHT       CLEAR     18  12  79 CALM        N/A
WILKERSON PASS MOCLDY    18  -2  41 W8        30.32F WCI   7
$$

COZ069>075-060900-
...SAN LUIS VALLEY/SANGRE DE CRISTO MOUNTAINS...

CITY           SKY/WX    TMP DP  RH WIND       PRES   REMARKS
ALAMOSA        PTCLDY    17  12  80 CALM      30.38F
LA VETA PASS   CLEAR     19   3  49 MISG      30.31S
SAGUACHE       CLEAR     25  10  54 NW16      30.38S WCI  12
$$

COZ035-036-038>040-060900-
...NORTHERN COLORADO FRONT RANGE...

CITY           SKY/WX    TMP DP  RH WIND       PRES   REMARKS
DENVER INTL AP MOCLDY    20  12  71 S12       30.23S WCI   8
DMNS CITY PARK   N/A     26  18  73 S9        30.24S WCI  16
AURORA         PTCLDY    26  12  55 S10       30.24S WCI  16
FRONT RANGE AP PTCLDY    23  16  74 S14       30.24S WCI  11
ERIE MUNI ARPT PTCLDY    17  12  80 N6        30.24R WCI   9
BOULDER MUN AP PTCLDY    27  14  59 NE5       30.22S WCI  21
CENTENNIAL     PTCLDY    28  11  48 S9        30.24S WCI  19
BROOMFIELD     PTCLDY    28  14  54 W3        30.23S
FORT COLLINS   MOCLDY    25  16  68 N6        30.25F WCI  18
LONGMONT       MOCLDY    20  13  75 CALM      30.26R
$$

COZ041-046-047-076>085-087-088-060900-
...PIKES PEAK/PALMER DIVIDE AND SOUTHERN FOOTHILLS...

CITY           SKY/WX    TMP DP  RH WIND       PRES   REMARKS
COLO. SPRINGS  PTCLDY    20  12  71 NE8       30.27S WCI  10
A. F. ACADEMY  CLEAR     15   6  67 N7        30.26S WCI   6
ELLICOTT       NOT AVBL
FALCON         CLEAR     23   6  49 W6        30.27S WCI  15
FORT CARSON    CLEAR     24  14  65 NW6       30.25F WCI  17
LIMON          PTCLDY     6   2  83 N6        30.26F WCI  -4
MONUMENT HILL  CLEAR     28   5  37 SW12      30.24S WCI  18
TRINIDAD       CLEAR     28  19  69 W13       30.29R WCI  17
$$

COZ042>045-048>051-090-091-060900-
...NORTHEAST COLORADO...

CITY           SKY/WX    TMP DP  RH WIND       PRES   REMARKS
GREELEY ARPT   PTCLDY    23  14  68 CALM      30.25S
AKRON          CLEAR     26  19  74 W12       30.23F WCI  16
BURLINGTON     CLEAR     24  19  81 W8        30.26F WCI  15
WRAY           CLEAR     24  19  82 SW3       30.25S
STERLING       CLEAR     21  19  93 S8        30.25R WCI  12
HOLYOKE        CLEAR     28  19  69 W10       30.24S WCI  19
FORT MORGAN    CLEAR     22  18  84 W10       30.26R WCI  12
$$

COZ086-089-092>099-060900-
...SOUTHEAST COLORADO...

CITY           SKY/WX    TMP DP  RH WIND       PRES   REMARKS
PUEBLO         CLEAR     24  21  88 W6        30.28F WCI  17
LA JUNTA       CLEAR     27  21  78 W10       30.28F WCI  17
LAMAR          CLEAR     21  19  92 SW6       30.27S WCI  13
SPRINGFIELD      N/A     27  23  85 W5        30.26R WCI  22
$$



USA.gov is the U.S. government's official web portal to all federal, state and local government web resources and services.